Wind_Speed
21 22 22 21 21 22 23 24 24 23 23 22 22 24 25 25 25 26 26 26 26 27 28 28 28 28 28 29 29 29 30 30 31 33 34 35 35 36 35 35 35 36 36 35
22 23 22 22 22 23 23 24 24 25 24 23 23 24 25 26 26 27 26 26 26 26 26 27 27 27 27 27 27 28 29 31 31 33 33 33 34 33 33 33 33 33 34 34
23 22 23 22 21 22 23 24 25 25 25 24 24 25 26 26 26 26 26 25 25 25 26 26 25 25 26 26 27 28 28 29 30 31 31 31 32 32 32 32 32 32 33 33
24 23 23 21 21 22 23 23 24 25 24 25 25 25 25 25 26 26 26 25 25 25 25 25 25 26 26 26 26 27 28 28 29 29 29 29 30 30 30 31 31 31 31 31
25 25 24 21 21 22 23 23 23 24 25 25 25 25 25 25 25 25 25 25 25 24 24 25 25 26 26 26 26 26 27 27 28 28 28 28 28 29 29 30 30 30 30 30
27 27 26 22 22 23 24 24 24 25 25 26 26 25 24 24 25 25 25 25 25 25 25 25 26 26 26 26 26 27 26 26 27 28 28 27 27 28 28 28 28 28 29 30
27 28 27 25 24 25 25 25 25 26 25 25 25 25 24 25 25 26 25 26 26 26 26 26 26 26 26 26 27 26 26 26 25 25 25 25 26 26 26 26 26 27 28 29
27 27 26 25 26 26 26 26 26 26 26 26 25 25 25 26 26 26 26 26 26 26 26 26 26 26 26 26 26 25 25 24 23 23 23 23 23 23 24 25 25 25 26 27
26 26 26 26 27 26 26 26 26 26 27 26 26 26 26 26 26 26 26 26 26 26 26 25 25 25 25 25 24 23 23 22 22 22 22 21 21 21 22 22 23 23 23 24
27 26 26 27 26 26 26 26 26 26 26 26 26 26 26 26 25 25 25 25 25 25 24 24 24 23 23 22 22 22 21 21 20 20 20 20 20 20 21 21 21 21 22 23
28 27 27 27 26 26 26 26 26 26 26 26 26 25 25 25 25 24 23 24 24 23 23 23 22 21 21 21 20 20 20 19 19 19 19 19 18 18 19 19 20 20 20 20
28 27 27 26 25 25 25 25 25 26 26 26 26 25 25 25 24 23 22 22 22 22 21 21 21 20 20 20 19 19 19 19 18 18 18 18 18 18 17 18 18 18 18 19
27 27 26 25 24 24 24 25 25 26 26 26 26 25 24 23 22 22 22 21 21 21 20 20 20 19 19 19 19 19 18 18 18 18 18 18 18 18 18 18 18 18 18 19
25 25 24 24 24 24 24 25 25 25 25 25 26 25 24 23 23 22 21 21 20 19 19 18 18 18 19 18 18 18 18 17 17 17 18 18 18 18 18 18 18 18 18 18
23 24 24 24 24 24 24 25 24 24 25 25 25 24 23 23 23 22 21 20 19 18 18 18 19 19 19 18 18 18 17 17 17 17 18 18 18 18 17 17 17 18 17 17
23 23 24 24 24 24 24 25 25 25 25 25 25 24 23 22 21 21 20 20 18 18 18 18 19 19 19 19 18 18 17 17 17 17 18 17 17 16 16 16 16 16 17 16
23 23 24 24 24 25 25 25 25 24 23 23 23 22 21 21 20 19 19 19 19 19 18 18 19 19 19 18 18 17 17 17 17 17 17 16 16 15 15 15 14 15 15 14
21 23 24 24 24 24 24 23 23 23 21 21 21 20 20 19 19 18 18 18 18 18 18 18 19 19 18 17 17 16 16 16 16 16 15 14 14 14 13 13 13 12 12 12
20 20 21 21 22 22 22 22 22 21 20 20 19 18 18 17 17 17 17 17 17 17 17 17 18 18 17 16 16 15 15 15 14 14 13 13 13 12 11 11 11 11 10 9
18 18 18 18 19 19 20 20 19 19 18 18 17 16 16 15 16 16 16 16 16 16 16 16 16 16 15 14 14 13 13 13 13 13 12 12 11 11 10 9 9 9 8 7
17 17 18 17 17 17 17 17 18 17 17 16 16 15 15 14 15 15 16 16 15 15 15 15 14 13 13 12 12 12 12 12 12 11 11 11 10 10 9 8 7 7 6 5
16 16 16 16 16 16 16 16 15 15 15 15 14 14 14 14 14 15 15 14 14 14 14 14 13 12 12 11 11 11 11 11 10 10 9 9 9 9 8 7 6 5 5 4
15 15 16 16 16 15 14 14 13 14 14 14 13 13 13 13 13 13 13 12 12 12 13 12 12 11 11 11 11 10 10 10 9 9 8 8 8 8 7 6 5 5 4 3
15 16 16 16 15 15 14 14 13 13 13 12 12 13 13 13 12 12 11 11 11 11 10 10 10 10 10 10 10 10 10 9 8 8 8 8 7 7 7 6 5 5 4 3
16 16 16 15 15 15 15 14 13 13 13 12 12 12 12 12 11 11 10 10 10 10 9 9 9 9 9 9 9 9 8 8 8 7 7 7 7 6 6 6 6 6 5 4
15 15 15 14 14 14 14 13 13 12 12 12 12 12 11 11 10 9 9 9 9 9 9 9 8 8 8 7 7 8 8 8 8 7 7 7 6 6 6 6 6 6 6 5
14 14 13 13 13 13 13 12 12 12 12 12 12 11 11 10 10 9 9 9 8 8 8 8 7 7 7 7 6 6 7 7 7 7 7 7 6 6 6 6 6 6 6 6
Wind_Direction
284 284 283 280 278 275 276 280 283 285 283 282 283 284 283 284 286 287 285 283 281 279 278 278 277 275 275 276 275 272 269 270 270 269 267 266 264 263 263 262 262 261 260 260
284 283 283 280 278 278 277 279 282 283 282 283 282 282 283 285 286 287 287 284 282 280 279 279 278 277 277 277 276 275 272 270 270 270 267 265 264 262 262 262 262 262 260 260
285 283 282 281 282 281 280 280 280 281 283 282 281 281 284 285 286 287 287 285 283 282 282 281 279 279 280 279 278 277 276 273 271 271 269 266 264 262 261 261 262 262 261 261
284 283 281 286 284 282 280 279 278 280 282 281 280 282 283 283 284 285 286 286 284 283 282 282 281 280 280 280 279 277 276 275 273 271 269 266 264 263 261 261 262 262 262 261
285 283 283 284 285 284 281 279 279 280 281 281 281 282 283 284 283 284 286 286 285 283 283 283 283 282 281 281 280 280 279 276 273 272 271 268 264 262 263 263 262 262 262 262
283 282 282 284 283 282 280 279 279 280 281 281 282 282 283 283 284 283 283 285 285 286 285 285 286 283 282 282 282 282 280 278 275 272 271 269 265 264 263 264 263 263 262 262
284 283 283 284 283 282 281 283 282 281 281 281 281 283 284 283 284 283 283 284 285 286 286 286 285 284 283 282 282 281 279 277 276 273 270 269 267 266 265 266 266 265 264 263
282 282 284 283 281 281 282 282 283 283 282 281 282 283 284 285 285 285 285 285 285 285 286 286 285 284 285 284 283 281 280 278 275 272 271 270 269 269 268 268 267 267 267 267
283 283 282 280 281 282 281 282 283 284 284 283 282 283 286 286 285 284 286 287 287 286 285 285 285 285 285 285 283 282 281 279 276 273 274 272 271 271 271 270 269 269 269 270
283 283 282 281 281 280 281 282 282 282 283 283 284 285 286 287 287 286 286 286 287 287 286 285 286 284 283 284 283 281 280 277 275 273 274 274 274 272 271 271 270 270 271 272
283 283 282 280 280 279 279 281 281 283 284 285 285 286 287 287 287 286 286 286 286 287 287 287 286 284 284 284 281 279 278 275 272 271 272 272 273 273 273 273 272 271 272 271
283 283 282 281 279 278 278 281 282 283 285 285 286 286 286 286 285 284 286 287 287 287 287 287 286 284 284 284 282 279 276 274 271 270 271 271 272 273 275 276 275 275 275 274
282 280 280 280 277 278 279 281 282 283 285 286 285 285 285 285 283 283 285 288 289 287 286 287 288 286 286 284 283 279 276 274 273 271 271 270 270 272 274 275 276 277 276 276
279 279 279 279 277 277 279 282 282 283 284 285 285 284 283 283 283 283 285 288 288 286 285 286 287 286 286 285 281 278 276 273 271 271 272 270 269 271 273 275 276 277 277 277
279 278 278 278 278 278 279 281 282 283 283 284 285 282 281 281 281 281 284 285 284 283 284 286 286 286 286 284 280 277 276 273 272 273 273 271 270 271 273 274 275 277 276 276
278 276 277 278 278 279 279 280 281 284 285 284 283 282 280 279 279 280 282 282 280 282 285 287 288 288 287 285 281 278 276 275 274 275 275 271 270 272 272 274 275 276 276 274
280 277 277 278 278 279 280 280 282 285 287 286 284 281 280 280 279 279 279 279 279 282 284 285 286 287 286 283 280 277 276 276 275 275 274 271 269 270 271 272 274 277 277 275
281 280 280 281 281 280 281 282 284 285 285 285 285 282 280 280 281 278 276 276 278 280 282 284 284 285 282 278 275 273 273 274 275 273 271 267 265 266 267 269 274 277 277 276
286 285 283 282 282 281 281 281 282 282 282 284 284 282 280 280 279 278 276 274 276 279 282 284 284 284 280 275 272 271 271 271 270 267 262 260 259 261 264 270 274 276 274 275
286 286 285 286 285 284 284 283 282 281 281 284 282 280 282 281 279 277 276 276 277 279 283 286 285 284 279 274 271 269 268 267 266 263 258 255 255 258 263 269 271 272 270 267
289 288 288 289 288 287 286 286 284 281 280 283 281 280 281 282 280 278 278 278 278 279 281 284 283 280 276 271 268 267 266 265 264 259 253 251 253 255 258 261 262 264 260 257
290 289 288 289 289 289 288 286 285 283 283 282 279 279 279 281 281 282 280 279 278 277 278 281 280 277 272 269 268 265 263 262 258 254 250 249 250 248 248 247 247 249 248 251
289 288 288 289 290 292 290 287 285 286 285 282 280 279 280 283 284 284 282 281 279 276 275 276 276 275 273 269 266 262 258 257 253 249 247 246 245 240 237 237 237 237 236 238
287 288 290 291 290 289 289 287 285 286 286 282 280 281 283 286 284 280 278 278 278 276 274 273 273 273 272 268 263 258 253 249 245 241 240 237 235 232 231 232 232 226 222 223
287 288 289 289 286 285 285 285 284 282 281 280 281 284 286 286 283 281 278 275 274 274 274 274 274 272 269 263 256 250 245 239 235 232 230 227 224 224 229 229 224 218 218 220
289 289 288 287 285 283 281 281 279 278 279 281 282 283 284 283 281 279 276 274 274 272 272 273 272 267 262 255 247 241 235 230 226 224 222 219 222 225 227 226 221 215 215 217
290 289 288 286 285 282 278 275 275 277 279 282 283 283 282 279 275 273 273 274 272 270 270 269 268 261 251 246 238 231 227 223 220 219 218 219 221 220 220 220 215 211 213 215
Height
5589 5588 5586 5585 5584 5582 5581 5580 5579 5579 5578 5577 5575 5573 5572 5570 5568 5566 5564 5563 5561 5559 5558 5557 5556 5554 5553 5552 5551 5550 5549 5549 5548 5547 5547 5547 5547 5547 5547 5547 5548 5548 5549 5551
5583 5581 5579 5578 5577 5575 5574 5573 5572 5571 5571 5570 5568 5566 5564 5562 5560 5558 5557 5555 5553 5551 5550 5548 5547 5546 5545 5544 5542 5541 5540 5540 5539 5538 5537 5537 5537 5537 5537 5538 5538 5539 5540 5541
5575 5574 5571 5571 5571 5569 5568 5566 5565 5563 5564 5562 5560 5558 5557 5555 5553 5551 5549 5547 5545 5544 5542 5541 5539 5538 5537 5535 5534 5533 5531 5530 5529 5528 5528 5527 5527 5527 5528 5529 5529 5530 5531 5531
5567 5567 5564 5567 5564 5562 5560 5559 5558 5556 5555 5554 5552 5551 5549 5547 5545 5543 5541 5540 5538 5536 5534 5533 5531 5530 5528 5527 5525 5524 5523 5522 5520 5519 5519 5518 5518 5518 5519 5520 5520 5521 5521 5522
5559 5557 5557 5559 5557 5555 5553 5552 5551 5549 5547 5546 5545 5543 5542 5539 5537 5535 5534 5532 5530 5528 5527 5525 5523 5522 5520 5519 5517 5516 5514 5513 5512 5511 5510 5510 5509 5510 5510 5511 5511 5512 5512 5513
5551 5549 5549 5553 5550 5547 5546 5545 5544 5541 5540 5538 5537 5536 5536 5533 5530 5528 5526 5525 5523 5521 5519 5517 5516 5514 5512 5511 5509 5508 5506 5505 5504 5503 5502 5501 5501 5501 5501 5502 5503 5503 5504 5504
5543 5541 5541 5544 5541 5539 5539 5539 5536 5533 5532 5531 5529 5528 5527 5525 5523 5521 5519 5517 5515 5513 5512 5510 5508 5506 5505 5503 5502 5500 5498 5497 5496 5495 5494 5494 5493 5493 5494 5494 5495 5495 5495 5495
5535 5533 5536 5535 5532 5531 5531 5529 5527 5525 5524 5523 5521 5520 5519 5517 5515 5513 5511 5509 5507 5506 5504 5502 5500 5498 5497 5495 5494 5492 5490 5489 5488 5488 5487 5487 5486 5486 5486 5487 5487 5487 5487 5487
5529 5529 5528 5526 5524 5523 5522 5520 5519 5517 5516 5515 5514 5513 5511 5510 5508 5506 5504 5502 5500 5498 5496 5495 5493 5491 5489 5487 5486 5484 5483 5482 5482 5481 5481 5480 5480 5480 5480 5480 5480 5480 5480 5480
5520 5520 5519 5517 5516 5515 5513 5512 5510 5509 5508 5507 5505 5504 5503 5502 5500 5498 5496 5494 5492 5491 5489 5488 5485 5484 5482 5480 5479 5478 5477 5476 5476 5475 5475 5474 5474 5474 5474 5474 5473 5473 5473 5473
5511 5511 5510 5509 5508 5506 5505 5503 5502 5501 5500 5498 5497 5497 5495 5494 5492 5491 5489 5487 5485 5484 5482 5481 5479 5477 5475 5474 5473 5472 5471 5470 5470 5469 5469 5468 5468 5468 5468 5467 5467 5467 5466 5466
5503 5503 5501 5501 5499 5498 5496 5496 5494 5493 5492 5491 5489 5489 5488 5486 5485 5484 5482 5480 5479 5477 5475 5474 5472 5471 5469 5468 5467 5466 5465 5465 5464 5464 5463 5463 5463 5462 5462 5462 5461 5460 5459 5459
5494 5492 5491 5491 5490 5489 5488 5488 5487 5485 5484 5483 5481 5480 5480 5479 5478 5476 5475 5474 5472 5470 5469 5467 5466 5464 5463 5462 5461 5460 5460 5459 5459 5458 5458 5457 5457 5457 5456 5456 5455 5454 5454 5453
5485 5484 5483 5483 5482 5482 5481 5480 5479 5477 5476 5475 5473 5472 5472 5471 5470 5469 5468 5467 5465 5464 5463 5462 5460 5459 5457 5456 5455 5455 5454 5453 5453 5453 5452 5452 5452 5451 5451 5450 5450 5449 5449 5448
5477 5477 5476 5475 5475 5474 5473 5472 5471 5470 5468 5467 5465 5464 5464 5464 5463 5462 5461 5460 5459 5458 5457 5456 5455 5453 5452 5451 5450 5449 5448 5448 5448 5447 5447 5446 5446 5446 5445 5445 5444 5444 5443 5442
5471 5470 5469 5468 5468 5467 5466 5464 5463 5462 5460 5459 5458 5457 5457 5456 5456 5455 5455 5454 5453 5452 5451 5450 5449 5448 5446 5445 5444 5444 5443 5442 5442 5442 5441 5441 5440 5440 5440 5439 5439 5438 5437 5437
5463 5462 5461 5461 5460 5459 5458 5457 5456 5454 5453 5452 5451 5450 5449 5449 5448 5448 5448 5447 5447 5446 5445 5444 5443 5442 5441 5440 5439 5438 5437 5437 5436 5436 5436 5435 5435 5435 5435 5434 5434 5433 5432 5432
5456 5455 5454 5453 5451 5451 5450 5449 5448 5447 5446 5445 5444 5443 5443 5442 5442 5441 5441 5441 5440 5440 5439 5438 5437 5436 5435 5434 5433 5433 5432 5432 5431 5431 5430 5430 5430 5430 5430 5430 5429 5429 5428 5427
5449 5448 5446 5445 5444 5443 5442 5441 5441 5440 5439 5438 5437 5437 5436 5436 5436 5435 5435 5434 5434 5434 5433 5432 5431 5430 5429 5428 5428 5427 5427 5427 5426 5426 5426 5426 5426 5427 5426 5426 5425 5425 5424 5424
5443 5441 5440 5438 5437 5436 5435 5434 5434 5433 5433 5432 5431 5431 5431 5430 5430 5429 5429 5429 5428 5428 5428 5426 5425 5424 5423 5423 5423 5422 5422 5422 5422 5422 5422 5422 5423 5423 5423 5423 5422 5422 5421 5421
5437 5436 5434 5433 5432 5430 5429 5429 5428 5427 5427 5426 5426 5425 5425 5425 5424 5424 5423 5423 5423 5422 5422 5421 5420 5419 5419 5418 5418 5418 5418 5418 5418 5418 5418 5419 5419 5420 5420 5420 5420 5419 5419 5419
5432 5430 5429 5428 5426 5425 5424 5423 5423 5422 5422 5421 5421 5420 5420 5420 5419 5419 5418 5418 5417 5417 5417 5416 5415 5415 5415 5415 5414 5414 5414 5415 5415 5415 5415 5416 5416 5417 5417 5417 5417 5417 5417 5417
5427 5425 5424 5423 5421 5420 5419 5418 5418 5417 5417 5416 5416 5416 5416 5415 5414 5414 5414 5413 5412 5412 5412 5412 5411 5411 5411 5411 5411 5411 5411 5411 5412 5412 5413 5413 5414 5414 5415 5415 5415 5416 5416 5416
5422 5420 5419 5418 5416 5415 5414 5414 5413 5413 5412 5412 5412 5411 5411 5411 5410 5409 5409 5409 5408 5408 5408 5408 5408 5408 5408 5408 5408 5408 5408 5408 5409 5409 5410 5411 5412 5412 5413 5413 5414 5414 5414 5415
5416 5415 5414 5412 5411 5411 5410 5409 5409 5409 5408 5408 5408 5407 5407 5406 5406 5405 5405 5405 5405 5405 5404 5404 5404 5404 5404 5404 5405 5405 5405 5406 5406 5407 5408 5409 5410 5410 5411 5411 5412 5413 5413 5414
5411 5410 5408 5407 5407 5406 5405 5405 5405 5405 5404 5404 5404 5403 5403 5403 5402 5402 5402 5402 5401 5401 5401 5401 5401 5402 5402 5402 5402 5402 5403 5404 5404 5405 5406 5407 5408 5409 5409 5410 5410 5411 5412 5413
5406 5405 5404 5403 5402 5401 5401 5401 5401 5401 5400 5400 5400 5399 5399 5399 5399 5399 5398 5398 5398 5398 5399 5399 5399 5399 5399 5399 5400 5400 5401 5402 5403 5404 5404 5405 5406 5407 5408 5408 5409 5410 5411 5412